When you browse on this site, cookies collect data to enhance your experience and personalize the content and advertising you see.
Visit our Privacy Policy to learn more. By continuing to use the site, you agree to this use of cookies and data.
  • en Suisse
  • Liste des pays
  • À 7 jours
  • Température de l'eau
  • Carte satellitaire
  • Carte météo
  • Widgets météo
  • user-avatar
    Se connecter

    Météo par heure à Kanye

    Ce jour, 17 Novembre, Samedi

    Heure Température Précipitation Vent Pression Humidité
    00:00 +27°C° 0 mm 3 m/s 653 mmHg 20%
    01:00 +26°C° 0 mm 3 m/s 653 mmHg 22%
    02:00 +25°C° 0 mm 4 m/s 653 mmHg 26%
    03:00 +24°C° 0 mm 3 m/s 653 mmHg 29%
    04:00 +24°C° 0 mm 3 m/s 652 mmHg 32%
    05:00 +23°C° 0 mm 2 m/s 652 mmHg 34%
    06:00 +24°C° 0 mm 3 m/s 653 mmHg 32%
    07:00 +26°C° 0 mm 3 m/s 654 mmHg 30%
    08:00 +28°C° 0 mm 4 m/s 655 mmHg 27%
    09:00 +30°C° 0 mm 3 m/s 655 mmHg 24%
    10:00 +33°C° 0 mm 3 m/s 655 mmHg 21%
    11:00 +35°C° 0 mm 2 m/s 655 mmHg 18%
    12:00 +36°C° 0 mm 2 m/s 655 mmHg 16%
    13:00 +37°C° 0 mm 1 m/s 654 mmHg 14%
    14:00 +39°C° 0 mm 1 m/s 654 mmHg 12%
    15:00 +39°C° 0 mm 1 m/s 653 mmHg 12%
    16:00 +37°C° 0 mm 1 m/s 653 mmHg 12%
    17:00 +36°C° 0 mm 1 m/s 652 mmHg 12%
    18:00 +35°C° 0 mm 1 m/s 652 mmHg 13%
    19:00 +33°C° 0 mm 1 m/s 652 mmHg 15%
    20:00 +32°C° 0 mm 2 m/s 652 mmHg 17%
    21:00 +31°C° 0 mm 2 m/s 652 mmHg 18%
    22:00 +30°C° 0 mm 2 m/s 652 mmHg 19%
    23:00 +29°C° 0 mm 2 m/s 652 mmHg 21%

    Demain, 18 Novembre, Dimanche

    Heure Température Précipitation Vent Pression Humidité
    00:00 +29°C° 0 mm 3 m/s 652 mmHg 22%
    01:00 +28°C° 0 mm 3 m/s 652 mmHg 23%
    02:00 +28°C° 0 mm 3 m/s 652 mmHg 24%
    03:00 +27°C° 0 mm 2 m/s 651 mmHg 26%
    04:00 +26°C° 0 mm 2 m/s 651 mmHg 28%
    05:00 +25°C° 0 mm 1 m/s 651 mmHg 30%
    06:00 +27°C° 0 mm 2 m/s 652 mmHg 26%
    07:00 +29°C° 0 mm 3 m/s 653 mmHg 23%
    08:00 +30°C° 0 mm 5 m/s 654 mmHg 20%
    09:00 +33°C° 0 mm 5 m/s 654 mmHg 18%
    10:00 +35°C° 0 mm 5 m/s 654 mmHg 16%
    11:00 +36°C° 0 mm 5 m/s 654 mmHg 15%
    12:00 +37°C° 0 mm 5 m/s 654 mmHg 14%
    13:00 +38°C° 0 mm 4 m/s 653 mmHg 13%
    14:00 +39°C° 0 mm 3 m/s 653 mmHg 12%
    15:00 +38°C° 0 mm 3 m/s 652 mmHg 12%
    16:00 +38°C° 0 mm 3 m/s 652 mmHg 12%
    17:00 +38°C° 0 mm 3 m/s 651 mmHg 12%
    18:00 +36°C° 0 mm 3 m/s 651 mmHg 13%
    19:00 +35°C° 0 mm 2 m/s 651 mmHg 15%
    20:00 +34°C° 0 mm 2 m/s 651 mmHg 16%
    21:00 +33°C° 0 mm 3 m/s 651 mmHg 19%
    22:00 +32°C° 0 mm 4 m/s 651 mmHg 21%
    23:00 +30°C° 0 mm 5 m/s 652 mmHg 23%

    Après-demain, 19 Novembre, Lundi

    Heure Température Précipitation Vent Pression Humidité
    00:00 +29°C° 0 mm 6 m/s 651 mmHg 27%
    01:00 +28°C° 0 mm 7 m/s 651 mmHg 31%
    02:00 +27°C° 0 mm 7 m/s 651 mmHg 34%
    03:00 +26°C° 0 mm 8 m/s 651 mmHg 39%
    04:00 +24°C° 0 mm 8 m/s 651 mmHg 44%
    05:00 +23°C° 0 mm 8 m/s 651 mmHg 48%
    06:00 +24°C° 0 mm 9 m/s 651 mmHg 46%
    07:00 +26°C° 0 mm 9 m/s 652 mmHg 44%
    08:00 +27°C° 0 mm 10 m/s 653 mmHg 42%
    09:00 +28°C° 0 mm 10 m/s 653 mmHg 39%
    10:00 +31°C° 0 mm 9 m/s 653 mmHg 35%
    11:00 +33°C° 0 mm 9 m/s 654 mmHg 32%
    12:00 +34°C° 0 mm 8 m/s 653 mmHg 28%
    13:00 +36°C° 0 mm 7 m/s 653 mmHg 25%
    14:00 +38°C° 0 mm 7 m/s 652 mmHg 22%
    15:00 +38°C° 0 mm 6 m/s 652 mmHg 21%
    16:00 +36°C° 0 mm 5 m/s 651 mmHg 21%
    17:00 +36°C° 0 mm 4 m/s 650 mmHg 20%
    18:00 +34°C° 0 mm 5 m/s 650 mmHg 24%
    19:00 +33°C° 0 mm 5 m/s 650 mmHg 28%
    20:00 +30°C° 0 mm 5 m/s 649 mmHg 32%
    21:00 +29°C° 0 mm 5 m/s 650 mmHg 35%
    22:00 +28°C° 0 mm 5 m/s 650 mmHg 39%
    23:00 +27°C° 0 mm 5 m/s 650 mmHg 42%

    20 Novembre, Mardi

    Heure Température Précipitation Vent Pression Humidité
    00:00 +27°C° 0 mm 6 m/s 650 mmHg 44%
    01:00 +26°C° 0 mm 6 m/s 649 mmHg 45%
    02:00 +26°C° 0 mm 6 m/s 649 mmHg 47%
    03:00 +24°C° 0 mm 6 m/s 649 mmHg 47%
    04:00 +24°C° 0 mm 6 m/s 649 mmHg 47%
    05:00 +23°C° 0 mm 6 m/s 649 mmHg 48%
    06:00 +24°C° 0.1 mm 7 m/s 649 mmHg 47%
    07:00 +26°C° 0.1 mm 8 m/s 650 mmHg 46%
    08:00 +27°C° 0.1 mm 9 m/s 650 mmHg 45%
    09:00 +29°C° 0 mm 9 m/s 651 mmHg 39%
    10:00 +32°C° 0 mm 9 m/s 651 mmHg 34%
    11:00 +34°C° 0 mm 9 m/s 651 mmHg 28%
    12:00 +35°C° 0 mm 9 m/s 651 mmHg 24%
    13:00 +37°C° 0 mm 8 m/s 650 mmHg 20%
    14:00 +39°C° 0 mm 8 m/s 649 mmHg 17%
    15:00 +39°C° 0 mm 7 m/s 649 mmHg 16%
    16:00 +39°C° 0 mm 6 m/s 649 mmHg 14%
    17:00 +39°C° 0 mm 5 m/s 648 mmHg 13%
    18:00 +36°C° 0 mm 5 m/s 648 mmHg 14%
    19:00 +34°C° 0 mm 5 m/s 648 mmHg 14%
    20:00 +33°C° 0 mm 6 m/s 649 mmHg 14%
    21:00 +32°C° 0 mm 6 m/s 649 mmHg 12%
    22:00 +29°C° 0 mm 6 m/s 649 mmHg 10%
    23:00 +28°C° 0 mm 6 m/s 649 mmHg 8%

    21 Novembre, Mercredi

    Heure Température Précipitation Vent Pression Humidité
    00:00 +27°C° 0 mm 5 m/s 649 mmHg 9%
    01:00 +26°C° 0 mm 4 m/s 648 mmHg 9%
    02:00 +24°C° 0 mm 3 m/s 648 mmHg 10%
    03:00 +24°C° 0 mm 2 m/s 648 mmHg 11%
    04:00 +23°C° 0 mm 2 m/s 648 mmHg 12%
    05:00 +23°C° 0 mm 1 m/s 648 mmHg 14%
    06:00 +24°C° 0 mm 1 m/s 649 mmHg 14%
    07:00 +26°C° 0 mm 1 m/s 650 mmHg 14%
    08:00 +27°C° 0 mm 1 m/s 651 mmHg 14%
    09:00 +29°C° 0 mm 2 m/s 651 mmHg 13%
    10:00 +30°C° 0 mm 3 m/s 651 mmHg 12%
    11:00 +33°C° 0 mm 4 m/s 652 mmHg 10%
    12:00 +34°C° 0 mm 4 m/s 651 mmHg 10%
    13:00 +35°C° 0 mm 5 m/s 651 mmHg 10%
    14:00 +37°C° 0 mm 5 m/s 650 mmHg 9%
    15:00 +36°C° 0 mm 5 m/s 650 mmHg 9%
    16:00 +36°C° 0 mm 5 m/s 650 mmHg 10%
    17:00 +36°C° 0 mm 6 m/s 649 mmHg 10%
    18:00 +34°C° 0 mm 5 m/s 649 mmHg 11%
    19:00 +32°C° 0 mm 4 m/s 649 mmHg 12%
    20:00 +29°C° 0 mm 3 m/s 649 mmHg 13%
    21:00 +28°C° 0 mm 3 m/s 649 mmHg 14%
    22:00 +27°C° 0 mm 3 m/s 649 mmHg 14%
    23:00 +26°C° 0 mm 3 m/s 649 mmHg 15%

    22 Novembre, Jeudi

    Heure Température Précipitation Vent Pression Humidité
    00:00 +25°C° 0 mm 3 m/s 649 mmHg 16%
    01:00 +24°C° 0 mm 3 m/s 649 mmHg 17%
    02:00 +22°C° 0 mm 3 m/s 649 mmHg 17%
    03:00 +21°C° 0 mm 3 m/s 649 mmHg 19%
    04:00 +20°C° 0 mm 3 m/s 649 mmHg 20%
    05:00 +20°C° 0 mm 3 m/s 649 mmHg 22%
    06:00 +22°C° 0 mm 4 m/s 649 mmHg 20%
    07:00 +25°C° 0 mm 4 m/s 650 mmHg 18%
    08:00 +28°C° 0 mm 5 m/s 651 mmHg 17%
    09:00 +29°C° 0 mm 5 m/s 651 mmHg 17%
    10:00 +32°C° 0 mm 4 m/s 651 mmHg 18%
    11:00 +34°C° 0 mm 4 m/s 651 mmHg 18%
    12:00 +34°C° 0 mm 3 m/s 651 mmHg 16%
    13:00 +35°C° 0 mm 2 m/s 650 mmHg 14%
    14:00 +36°C° 0 mm 2 m/s 650 mmHg 12%
    15:00 +36°C° 0 mm 2 m/s 650 mmHg 10%
    16:00 +37°C° 0 mm 2 m/s 649 mmHg 9%
    17:00 +37°C° 0 mm 2 m/s 649 mmHg 8%
    18:00 +35°C° 0 mm 2 m/s 649 mmHg 10%
    19:00 +31°C° 0 mm 2 m/s 649 mmHg 12%
    20:00 +29°C° 0 mm 2 m/s 648 mmHg 14%
    21:00 +28°C° 0 mm 3 m/s 649 mmHg 19%
    22:00 +27°C° 0 mm 3 m/s 649 mmHg 24%
    23:00 +26°C° 0 mm 3 m/s 649 mmHg 29%
    Voir plus